Regional Weather Roundup
Issued by NWS Mt. Holly, NJ

Home | Current Version | Previous Version | Text Only | Print | Product List | Glossary On
Versions: 1 2 3 4 5 6 7 8 9 10 11 12 13 14 15 16 17 18 19 20 21 22 23 24 25 26 27
000
ASUS41 KPHI 240012
RWRPHI

REGIONAL WEATHER ROUNDUP
NATIONAL WEATHER SERVICE MOUNT HOLLY NJ
800 PM EDT FRI JUN 23 2017

NOTE:  "FAIR" INDICATES FEW OR NO CLOUDS BELOW 12,000 FEET WITH NO
SIGNIFICANT WEATHER AND/OR OBSTRUCTIONS TO VISIBILITY.

 * = STATION DOES NOT REPORT PRECIPITATION (E.G. RAIN, SNOW, ETC.)
        OR FOG.

NJZ015>026-240100-
SOUTHERN NEW JERSEY

CITY           SKY/WX    TMP DP  RH WIND       PRES   REMARKS
POMONA         NOT AVBL
MILLVILLE      CLEAR     83  77  82 VRB5      29.69S HX  92
MOUNT HOLLY    PTCLDY    82  71  69 SW10G17   29.66S
TRENTON        LGT RAIN  82  73  74 SW20G26   29.66R
6HR MIN TEMP:  80; 6HR MAX TEMP:  87; 6HR PCP:  0.01;


$$
NJZ001>014-240100-
NORTHERN NEW JERSEY

CITY           SKY/WX    TMP DP  RH WIND       PRES   REMARKS
SUSSEX         MOCLDY    75  74  96 SW3       29.64S
ANDOVER*         N/A     73  71  93 CALM      29.65F
MORRISTOWN     RAIN      77  75  94 W13       29.65S
NEWARK         TSTM      83  73  72 S13G20    29.63S
TETERBORO      CLOUDY    83  75  77 SW6       29.62S HX  90
CALDWELL       LGT RAIN  80  75  84 W3        29.65S
SOMERVILLE     CLOUDY    76  75  97 CALM      29.63F
ALLAIRE*       CLOUDY    83  73  72 S14G24    29.66F
TOMS RIVER*    CLOUDY    83  73  72 SW13      29.68F

$$
PAZ043-044-047-054-055-060>062-066>071-240100-
EASTERN PENNSYLVANIA

CITY           SKY/WX    TMP DP  RH WIND       PRES   REMARKS
PHILADELPHIA   MOCLDY    84  72  67 SW16G24   29.67S
6HR MIN TEMP:  84; 6HR MAX TEMP:  89;

NORTH PHILA    PTCLDY    85  72  65 SW17G28   29.67R HX  91
BLUE BELL*     PTCLDY    81  72  74 SW9G18    29.68R
DOYLESTOWN     CLOUDY    73  73 100 CALM      29.66S
QUAKERTOWN*    CLOUDY    75  73  94 CALM      29.67S
PERKASIE*      MOCLDY    73  73 100 SE3       29.68R
POTTSTOWN      PTCLDY    80  74  81 S7        29.67R
LANCASTER      PTCLDY    83  72  69 SW12G21   29.65R
COATESVILLE    CLEAR     81  72  74 SW8       29.69S
READING        CLOUDY    77  77 100 CALM      29.63S
6HR MIN TEMP:  74; 6HR MAX TEMP:  88; 6HR PCP:  0.78;

ALLENTOWN      MOCLDY    78  73  84 S6        29.64F
6HR MIN TEMP:  76; 6HR MAX TEMP:  87; 6HR PCP:  0.58;

MOUNT POCONO   PTCLDY    72  71  97 SW5       29.69F
6HR MIN TEMP:  70; 6HR MAX TEMP:  75; 6HR PCP:  0.14;

HAZLETON         N/A     73  70  88 S3        29.71R
LEHIGHTON      RAIN      77  73  88 CALM      29.64S
WILKES BARRE   CLOUDY    80  70  71 SW12      29.63R

$$
DEZALL-MDZ008-012-015-019-020-240100-
DELAWARE AND EASTERN MARYLAND

CITY           SKY/WX    TMP DP  RH WIND       PRES   REMARKS
WILMINGTON     CLEAR     83  74  74 SW15G23   29.68S
6HR MIN TEMP:  83; 6HR MAX TEMP:  88;

DOVER          CLEAR     85  78  79 SW15      29.68S HX  96
GEORGETOWN     CLEAR     86  73  65 SW14      29.73S HX  93
6HR MIN TEMP:  85; 6HR MAX TEMP:  89; 6HR PCP: TRACE;

EASTON         MOCLDY    86  73  66 SW12      29.74F HX  93
ABERDEEN       PTCLDY    83  74  75 SW10      29.68R
PATUXENT       MOCLDY    85  73  67 SW9       29.72F HX  91
OCEAN CITY     PTCLDY    79  74  84 SW9       29.76S
WALLOPS ISLAND CLEAR     77  73  87 S10       29.78R
CAMBRIDGE      CLEAR     84  73  70 S7G14     29.72S HX  91
SALISBURY      CLEAR     84  74  71 S10       29.74S HX  91

$$
PAZ001-021-NYZ056-072-MDZ011-DCZ001-240100-
OTHER NEARBY LOCATIONS

CITY           SKY/WX    TMP DP  RH WIND       PRES   REMARKS
HARRISBURG     RAIN      80  72  76 SW12G29   29.65R
STATE COLLEGE  CLOUDY    72  70  94 SW9       29.67R
WILLIAMSPORT   CLOUDY    79  71  76 W6        29.60R
BINGHAMTON     NOT AVBL
NEW YORK CITY  CLOUDY    81  73  76 CALM      29.67S
BALTIMORE      PTCLDY    84  75  74 SW10G17   29.68S HX  92
WASHINGTON DC  MOCLDY    86  74  67 SW15      29.70S HX  94

$$




USA.gov is the U.S. government's official web portal to all federal, state and local government web resources and services.